[[{"header":{"parameterUnit":"m.s-1","parameterCategory":1,"la1":30.2991,"la2":30.254,"lo1":-89.0895,"lo2":-89.0444,"dy":0.0017,"dx":0.0017,"nx":28,"ny":28,"refTime":"2024-10-20T09:00:00:Z","depth":0,"parameterNumber":2,"parameterNumberName":"U-component_of_WINDS"},"data":[0,0,0,0,0,0,0,0,0,0,0,0,0,0,0,0,0,0,0,0,0,0,0,0,0,0,0,0,0,0,0,0,0,0,0,0,0,0,0,0,0,0,0,0,0,0,0,0,0,0,0,0,0,0,0,0,0,0,-1.6907,-1.6906,0,-1.6842,-1.6841,-1.6841,-1.6782,-1.6781,-1.678,-1.678,-1.6714,-1.6713,-1.6711,0,0,0,0,0,0,0,0,0,0,0,0,0,-1.6981,-1.698,-1.6907,-1.6906,-1.6906,-1.6842,-1.6841,-1.684,-1.6782,-1.6781,-1.678,-1.6779,-1.6714,-1.6713,-1.6711,0,0,0,0,0,0,0,0,0,0,0,0,0,-1.6936,-1.698,-1.6907,-1.6869,-1.6865,-1.6842,-1.6841,-1.684,-1.6782,-1.6781,-1.678,-1.6779,-1.6714,-1.6713,-1.6711,-1.6722,0,0,-1.6706,-1.6705,0,0,0,0,0,0,0,0,-1.6939,-1.6933,-1.6875,-1.6871,-1.6867,-1.6819,-1.6843,-1.6801,-1.6782,-1.6813,-1.678,-1.6778,-1.675,-1.6745,-1.6735,-1.6719,-1.6716,-1.6706,-1.6705,-1.6704,-1.6704,0,0,0,0,0,0,0,-1.6942,-1.6936,-1.6881,-1.6874,-1.6869,-1.6855,-1.6847,-1.6835,-1.6788,-1.6811,-1.6806,-1.6799,-1.6747,-1.6737,-1.6733,-1.6715,-1.6706,-1.6705,-1.6704,-1.6703,-1.6707,-1.6708,0,0,0,0,0,0,-1.6951,-1.6939,-1.6883,-1.6879,-1.6901,-1.6854,-1.6846,-1.6835,-1.6788,-1.678,-1.68,-1.6797,-1.674,-1.6735,-1.6731,-1.6742,-1.6704,-1.6703,-1.6702,-1.6705,-1.6707,-1.6708,0,0,0,0,0,0,-1.6953,-1.6946,-1.6886,-1.6908,-1.6899,-1.6854,-1.6843,-1.6835,-1.6824,-1.678,-1.6772,-1.6798,-1.6739,-1.6733,-1.6725,-1.6739,-1.6702,-1.67,-1.6704,-1.6706,-1.6707,-1.6764,0,0,0,0,0,0,-1.6955,-1.6947,-1.6951,-1.6908,-1.6898,-1.6882,-1.6844,-1.6834,-1.6822,-1.6816,-1.6776,-1.6769,-1.6738,-1.6728,-1.6723,-1.6736,-1.6699,-1.6703,-1.6705,-1.6707,-1.676,-1.6767,-1.6773,0,0,0,0,0,-1.6958,-1.6969,-1.6952,-1.6945,-1.6902,-1.6882,-1.6877,-1.6841,-1.6823,-1.6826,-1.6798,-1.677,-1.6737,-1.6727,-1.6722,-1.6734,-1.6702,-1.6704,-1.6707,-1.6758,-1.6766,-1.6772,0,0,0,0,0,0,-1.7015,-1.6963,-1.6943,-1.694,-1.6916,-1.6873,-1.6876,-1.685,-1.6831,-1.6827,-1.6783,-1.6774,-1.6772,-1.6752,-1.6742,-1.6743,-1.6716,-1.6717,-1.6756,-1.6764,-1.677,-1.6775,-1.6698,0,0,0,0,0,-1.7027,-1.7015,-1.6971,-1.6973,-1.6962,-1.6921,-1.6911,-1.6886,-1.6859,-1.6849,-1.682,-1.6795,-1.678,-1.677,-1.6753,-1.6757,-1.6748,-1.6762,-1.6768,-1.6773,-1.6776,-1.6778,-1.6784,-1.6716,-1.6716,-1.6716,0,0,-1.7052,-1.7022,-1.7018,-1.6984,-1.6962,-1.6952,-1.6913,-1.6903,-1.6896,-1.6847,-1.6839,-1.6817,-1.6786,-1.6785,-1.6782,-1.6768,-1.6793,-1.6777,-1.6781,-1.6781,-1.6781,-1.6788,-1.6793,-1.6718,-1.6717,-1.6717,0,0,-1.7093,-1.7069,-1.7069,-1.7048,-1.7016,-1.6988,-1.6989,-1.6949,-1.6932,-1.6923,-1.6887,-1.6877,-1.685,-1.6831,-1.6817,-1.6851,-1.6825,-1.6847,-1.688,-1.6882,-1.6887,-1.6892,-1.6906,-1.6912,-1.6849,-1.6849,-1.6849,0,-1.7129,-1.7112,-1.7072,-1.7065,-1.7052,-1.7007,-1.7008,-1.6989,-1.6953,-1.6945,-1.6929,-1.6896,-1.6872,-1.6866,-1.6875,-1.6864,-1.6864,-1.6852,-1.689,-1.6894,-1.6898,-1.6911,-1.6916,-1.6852,-1.6852,-1.6851,-1.6851,0,-1.7158,-1.7147,-1.715,-1.7117,-1.7104,-1.7101,-1.7061,-1.7053,-1.7028,-1.7003,-1.6995,-1.6965,-1.6942,-1.6938,-1.6913,-1.6929,-1.6921,-1.6898,-1.687,-1.6908,-1.692,-1.6924,-1.6856,-1.6855,-1.6854,-1.6854,0,0,-1.7234,-1.7179,-1.7181,-1.7166,-1.7127,-1.7118,-1.7113,-1.709,-1.7085,-1.7061,-1.7057,-1.7035,-1.7014,-1.6999,-1.6972,-1.6974,-1.7005,-1.6951,-1.6949,-1.6964,-1.7022,-1.7042,-1.7048,-1.6987,-1.6988,-1.6988,-1.7026,0,-1.727,-1.7259,-1.7223,-1.7223,-1.7213,-1.717,-1.7166,-1.7142,-1.7118,-1.7106,-1.708,-1.7067,-1.7038,-1.7029,-1.7029,-1.7002,-1.7017,-1.6998,-1.6984,-1.6984,-1.6995,-1.7054,-1.7073,-1.711,-1.703,-1.703,-1.7031,0,-1.7311,-1.7291,-1.729,-1.7252,-1.7247,-1.7243,-1.722,-1.7209,-1.7181,-1.7164,-1.7148,-1.7118,-1.7111,-1.7084,-1.7075,-1.7063,-1.7055,-1.704,-1.7041,-1.704,-1.7011,-1.7056,-1.7121,-1.7127,-1.7037,-1.7037,-1.7036,0,-1.7369,-1.7341,-1.7337,-1.7325,-1.7281,-1.728,-1.7262,-1.7233,-1.7222,-1.7202,-1.7194,-1.7173,-1.7163,-1.7148,-1.7113,-1.7097,-1.7109,-1.7079,-1.7096,-1.7097,-1.7102,-1.7102,-1.7168,-1.7093,-1.7093,-1.7093,-1.7093,0,-1.7414,-1.7416,-1.7363,-1.7361,-1.7362,-1.7321,-1.7322,-1.73,-1.7275,-1.7268,-1.7229,-1.7224,-1.7178,-1.7167,-1.714,-1.7138,-1.7133,-1.712,-1.7113,-1.7124,-1.7126,-1.712,-1.7117,-1.7094,-1.7094,-1.7094,-1.7093,0,-1.748,-1.7445,-1.7438,-1.7397,-1.7386,-1.7389,-1.7354,-1.735,-1.7324,-1.7316,-1.7312,-1.7271,-1.7256,-1.722,-1.7196,-1.7178,-1.7184,-1.717,-1.7194,-1.719,-1.721,-1.7209,-1.7276,-1.7283,-1.7202,-1.7202,-1.7203,0,-1.7513,-1.7513,-1.7472,-1.7464,-1.7448,-1.7436,-1.7425,-1.7385,-1.7375,-1.7343,-1.7344,-1.7327,-1.7311,-1.729,-1.7259,-1.7241,-1.7227,-1.7252,-1.7225,-1.7237,-1.723,-1.7232,-1.7233,-1.7259,-1.726,-1.7261,-1.7261,0,-1.7575,-1.7557,-1.7542,-1.7522,-1.751,-1.7491,-1.7471,-1.7467,-1.7422,-1.7413,-1.7398,-1.7386,-1.7362,-1.7346,-1.7323,-1.7304,-1.7276,-1.727,-1.7273,-1.7286,-1.7301,-1.7295,-1.7213,-1.7269,-1.7268,-1.7268,-1.7267,-1.7267,-1.7626,-1.7625,-1.7596,-1.7581,-1.7562,-1.7544,-1.7539,-1.7512,-1.7499,-1.7477,-1.7453,-1.7441,-1.7414,-1.7381,-1.7364,-1.7355,-1.734,-1.7344,-1.7346,-1.7348,-1.7354,-1.7301,-1.735,-1.735,-1.7349,-1.7349,-1.7349,0,-1.7688,-1.7667,-1.7654,-1.7627,-1.7616,-1.7589,-1.7565,-1.7558,-1.7548,-1.7525,-1.751,-1.7494,-1.7478,-1.7445,-1.7427,-1.7426,-1.7413,-1.7423,-1.7423,-1.742,-1.7367,-1.7367,-1.7434,-1.7434,-1.7434,-1.7434,-1.7434,-1.7434,-1.7719,-1.7716,-1.7695,-1.7683,-1.7662,-1.765,-1.7639,-1.7623,-1.7604,-1.7588,-1.7575,-1.7553,-1.7527,-1.7506,-1.7491,-1.7482,-1.7478,-1.7493,-1.748,-1.7431,-1.7423,-1.7416,-1.7416,-1.7491,-1.7491,-1.7533,-1.7534,-1.7534]},{"header":{"parameterUnit":"m.s-1","parameterCategory":1,"la1":30.2991,"la2":30.254,"lo1":-89.0895,"lo2":-89.0444,"dy":0.0017,"dx":0.0017,"nx":28,"ny":28,"refTime":"2024-10-20T09:00:00:Z","depth":0,"parameterNumber":3,"parameterNumberName":"V-component_of_WINDS"},"data":[0,0,0,0,0,0,0,0,0,0,0,0,0,0,0,0,0,0,0,0,0,0,0,0,0,0,0,0,0,0,0,0,0,0,0,0,0,0,0,0,0,0,0,0,0,0,0,0,0,0,0,0,0,0,0,0,0,0,-1.4552,-1.4552,0,-1.4536,-1.4536,-1.4536,-1.4529,-1.4529,-1.4529,-1.4529,-1.4512,-1.4512,-1.4511,0,0,0,0,0,0,0,0,0,0,0,0,0,-1.4576,-1.4575,-1.4552,-1.4552,-1.4552,-1.4536,-1.4536,-1.4536,-1.4529,-1.4529,-1.4529,-1.4529,-1.4512,-1.4512,-1.4511,0,0,0,0,0,0,0,0,0,0,0,0,0,-1.4563,-1.4575,-1.4552,-1.4546,-1.4546,-1.4536,-1.4536,-1.4536,-1.4529,-1.4529,-1.4529,-1.4529,-1.4512,-1.4512,-1.4511,-1.4506,0,0,-1.4509,-1.4508,0,0,0,0,0,0,0,0,-1.4564,-1.4562,-1.4547,-1.4547,-1.4546,-1.4535,-1.4538,-1.4526,-1.4529,-1.4535,-1.4529,-1.4529,-1.4519,-1.4518,-1.4515,-1.4505,-1.4504,-1.4509,-1.4508,-1.4508,-1.4508,0,0,0,0,0,0,0,-1.4565,-1.4563,-1.4546,-1.4547,-1.4546,-1.4545,-1.4543,-1.4536,-1.4527,-1.4535,-1.4534,-1.4533,-1.4519,-1.4516,-1.4515,-1.4504,-1.4509,-1.4508,-1.4508,-1.4507,-1.449,-1.449,0,0,0,0,0,0,-1.4567,-1.4564,-1.4546,-1.4545,-1.4555,-1.4544,-1.4542,-1.4538,-1.4527,-1.4526,-1.4533,-1.4532,-1.4517,-1.4516,-1.4514,-1.4508,-1.4508,-1.4507,-1.4507,-1.449,-1.449,-1.449,0,0,0,0,0,0,-1.4567,-1.4565,-1.4547,-1.4554,-1.4552,-1.4544,-1.4539,-1.4538,-1.4535,-1.4526,-1.4524,-1.4531,-1.4517,-1.4515,-1.4508,-1.4508,-1.4507,-1.4506,-1.449,-1.449,-1.449,-1.4496,0,0,0,0,0,0,-1.4568,-1.4565,-1.4563,-1.4554,-1.4552,-1.4541,-1.4539,-1.4538,-1.4534,-1.4533,-1.4524,-1.4522,-1.4517,-1.4509,-1.4508,-1.4507,-1.4506,-1.4491,-1.449,-1.449,-1.4496,-1.4497,-1.4497,0,0,0,0,0,-1.4569,-1.4565,-1.4563,-1.4561,-1.4549,-1.4541,-1.454,-1.4534,-1.4534,-1.4532,-1.4526,-1.4522,-1.4508,-1.4509,-1.4507,-1.4506,-1.4491,-1.449,-1.449,-1.4496,-1.4497,-1.4497,0,0,0,0,0,0,-1.4572,-1.4563,-1.4561,-1.4554,-1.4549,-1.454,-1.4537,-1.4534,-1.4528,-1.4528,-1.4521,-1.4519,-1.4513,-1.4509,-1.451,-1.4501,-1.4499,-1.4499,-1.4504,-1.4504,-1.4505,-1.4506,-1.4505,0,0,0,0,0,-1.4572,-1.4568,-1.456,-1.4554,-1.4552,-1.4545,-1.4542,-1.4538,-1.4532,-1.4529,-1.4523,-1.4517,-1.4511,-1.4508,-1.4502,-1.4496,-1.4494,-1.4494,-1.4494,-1.4495,-1.4494,-1.4493,-1.4493,-1.449,-1.449,-1.449,0,0,-1.4572,-1.4567,-1.4564,-1.4555,-1.455,-1.4546,-1.4543,-1.4538,-1.4534,-1.4528,-1.4522,-1.4518,-1.451,-1.4505,-1.4502,-1.45,-1.4495,-1.4495,-1.4495,-1.4495,-1.4493,-1.4493,-1.4493,-1.449,-1.449,-1.449,0,0,-1.457,-1.4565,-1.4561,-1.4557,-1.455,-1.4546,-1.4545,-1.4537,-1.4535,-1.4528,-1.4524,-1.452,-1.451,-1.4506,-1.4502,-1.45,-1.4497,-1.4499,-1.45,-1.4499,-1.4499,-1.4499,-1.45,-1.45,-1.4498,-1.4498,-1.4498,0,-1.457,-1.4564,-1.4559,-1.4555,-1.4551,-1.4547,-1.4543,-1.4539,-1.453,-1.4528,-1.4527,-1.4516,-1.451,-1.4504,-1.4504,-1.4501,-1.45,-1.45,-1.4499,-1.4499,-1.4499,-1.45,-1.45,-1.4499,-1.4499,-1.4499,-1.4498,0,-1.4565,-1.4561,-1.4558,-1.4552,-1.4548,-1.4544,-1.4539,-1.4536,-1.4533,-1.4529,-1.4524,-1.4517,-1.4511,-1.4509,-1.4506,-1.4503,-1.4503,-1.4501,-1.4499,-1.45,-1.45,-1.4501,-1.4499,-1.4499,-1.4499,-1.4499,0,0,-1.4564,-1.4556,-1.4555,-1.4553,-1.4547,-1.4543,-1.4539,-1.4534,-1.4532,-1.4526,-1.4524,-1.4516,-1.4515,-1.4511,-1.4507,-1.4505,-1.4506,-1.4504,-1.4503,-1.4505,-1.4505,-1.4507,-1.4507,-1.4504,-1.4504,-1.4504,-1.4506,0,-1.4561,-1.4555,-1.4551,-1.4546,-1.4543,-1.454,-1.4536,-1.4532,-1.4529,-1.4525,-1.4521,-1.4517,-1.4515,-1.4513,-1.4511,-1.4507,-1.4506,-1.4506,-1.4502,-1.4502,-1.4505,-1.4507,-1.4509,-1.451,-1.4506,-1.4506,-1.4505,0,-1.4557,-1.4553,-1.4549,-1.4544,-1.4543,-1.454,-1.4536,-1.4532,-1.4528,-1.4526,-1.4523,-1.4519,-1.4516,-1.4514,-1.451,-1.451,-1.4508,-1.4506,-1.4506,-1.4505,-1.4504,-1.4507,-1.451,-1.4511,-1.4505,-1.4505,-1.4505,0,-1.4558,-1.4552,-1.4548,-1.4546,-1.4541,-1.454,-1.4537,-1.4533,-1.453,-1.4527,-1.4525,-1.4521,-1.4519,-1.4515,-1.4511,-1.451,-1.4508,-1.4505,-1.4506,-1.4506,-1.4506,-1.4506,-1.4509,-1.4504,-1.4504,-1.4504,-1.4504,0,-1.4556,-1.4553,-1.4549,-1.4547,-1.4545,-1.4541,-1.4538,-1.4536,-1.4532,-1.453,-1.4526,-1.4524,-1.4519,-1.4516,-1.4513,-1.451,-1.4509,-1.4507,-1.4507,-1.4508,-1.4508,-1.4507,-1.4507,-1.4504,-1.4504,-1.4504,-1.4504,0,-1.4556,-1.4553,-1.455,-1.4546,-1.4545,-1.4543,-1.4539,-1.4538,-1.4535,-1.4532,-1.4531,-1.4527,-1.4524,-1.4519,-1.4514,-1.4512,-1.4511,-1.4509,-1.4512,-1.4512,-1.4513,-1.4514,-1.4516,-1.4517,-1.451,-1.451,-1.451,0,-1.4555,-1.4553,-1.455,-1.4549,-1.4547,-1.4544,-1.4542,-1.4539,-1.4537,-1.4533,-1.4532,-1.4529,-1.4527,-1.4522,-1.4518,-1.4515,-1.4514,-1.4515,-1.4513,-1.4515,-1.4515,-1.4515,-1.4516,-1.4515,-1.4515,-1.4515,-1.4515,0,-1.4554,-1.4553,-1.4551,-1.4549,-1.4548,-1.4545,-1.4543,-1.4542,-1.4538,-1.4537,-1.4534,-1.4532,-1.4528,-1.4526,-1.4522,-1.452,-1.4517,-1.4516,-1.4516,-1.4518,-1.452,-1.452,-1.4514,-1.4516,-1.4516,-1.4516,-1.4516,-1.4516,-1.4554,-1.4553,-1.4551,-1.455,-1.4548,-1.4546,-1.4545,-1.4543,-1.4541,-1.4538,-1.4536,-1.4534,-1.4531,-1.4527,-1.4525,-1.4523,-1.4522,-1.4522,-1.4522,-1.4522,-1.4523,-1.4521,-1.4522,-1.4522,-1.4522,-1.4522,-1.4522,0,-1.4554,-1.4553,-1.4552,-1.455,-1.4549,-1.4547,-1.4545,-1.4544,-1.4543,-1.4541,-1.4539,-1.4537,-1.4534,-1.4531,-1.4529,-1.4528,-1.4527,-1.4528,-1.4528,-1.4528,-1.4524,-1.4524,-1.4529,-1.4529,-1.4529,-1.4529,-1.4529,-1.4529,-1.4554,-1.4553,-1.4552,-1.4551,-1.455,-1.4548,-1.4547,-1.4546,-1.4545,-1.4543,-1.4542,-1.454,-1.4538,-1.4535,-1.4534,-1.4533,-1.4532,-1.4534,-1.4532,-1.4529,-1.4528,-1.4527,-1.4528,-1.4533,-1.4533,-1.4537,-1.4537,-1.4537]}]]